Location: Berkeley
(37.8716°N, 122.2727°W)
Time: 22:57:29
(UTC-07:00)

Vanguard 2 - Visible Passes

Search period start: 07 June 2026 00:00
Search period end: 17 June 2026 00:00
Orbit: 553 x 2894 km, 32.9° (Epoch: 7 June)

Date Brightness Start Highest point End Pass type
(mag) Time Alt. Az. Time Alt. Az. Time Alt. Az.
7 Jun 9.9 01:13:25 10° W 01:23:59 47° SSW 01:39:15 10° SE visible
7 Jun 10.9 03:24:10 10° W 03:38:12 22° SSW 03:46:32 10° S visible
7 Jun 8.7 21:10:01 10° WSW 21:16:20 61° S 21:26:57 10° E visible
7 Jun 9.2 23:17:03 10° W 23:25:28 61° S 23:33:19 27° ESE visible
8 Jun 10.0 01:25:16 10° W 01:51:42 - SE 01:34:03 40° SW visible
8 Jun 11.3 03:52:52 14° S 03:52:52 14° S 03:55:42 10° S visible
8 Jun 8.7 21:21:35 10° WSW 21:27:55 63° S 21:38:39 10° E visible
8 Jun 9.3 23:28:43 10° W 23:37:06 56° SSW 23:42:26 36° SE visible
9 Jun 10.3 01:37:16 10° W 02:05:17 - SE 01:43:13 29° SW visible
9 Jun 8.7 21:33:10 10° WSW 21:39:32 62° S 21:50:18 10° ESE visible
9 Jun 9.4 23:40:25 10° W 23:48:43 50° SSW 23:51:59 41° SSE visible
10 Jun 10.6 01:49:28 10° W 01:52:47 19° WSW 01:52:47 19° WSW visible
10 Jun 8.7 21:44:46 10° W 21:51:09 60° S 22:00:57 13° ESE visible
10 Jun 9.5 23:52:10 10° W 00:00:20 43° SSW 00:01:47 42° S visible
11 Jun 10.9 02:01:59 10° WSW 02:02:37 12° WSW 02:02:37 12° WSW visible
11 Jun 8.8 21:56:23 10° W 22:02:46 56° S 22:10:55 17° ESE visible
12 Jun 9.7 00:04:01 10° W 00:11:45 36° SSW 00:11:45 36° SSW visible
12 Jun 8.9 22:08:02 10° W 22:14:23 50° S 22:21:00 22° SE visible
13 Jun 10.0 00:16:00 10° W 00:21:50 29° SW 00:21:50 29° SW visible
13 Jun 9.0 22:19:43 10° W 22:26:00 44° SSW 22:31:11 25° SE visible
14 Jun 10.3 00:28:13 10° WSW 00:32:02 21° SW 00:32:02 21° SW visible
14 Jun 9.2 22:31:28 10° W 22:37:37 37° SSW 22:41:27 27° SSE visible
15 Jun 10.6 00:40:52 10° WSW 00:42:19 13° WSW 00:42:19 13° WSW visible
15 Jun 9.5 22:43:20 10° WSW 22:49:14 30° SSW 22:51:48 27° S visible
16 Jun 9.8 22:55:22 10° WSW 23:00:52 24° SSW 23:02:13 23° S visible
